Probability
0 0 0 0 0 0 0 0 0 0 0 0 0 0 0 0 0 0 0 0 0 0 0 0 0 0 0 0 0 0 0 0 0 0 0 0 0 0
0 0 0 0 0 0 0 0 0 0 0 0 0 0 0 0 0 0 0 0 0 0 0 0 0 0 0 0 0 0 0 0 0 0 0 0 0 0
0 0 0 0 0 0 0 0 0 0 0 0 0 0 0 0 0 0 0 0 0 0 0 0 0 0 0 0 0 0 0 0 0 0 0 0 0 0
0 0 0 0 0 0 0 0 0 0 0 0 0 0 0 0 0 0 0 0 0 0 0 0 0 0 0 0 0 0 0 0 0 0 0 0 0 0
0 0 0 0 0 0 0 0 0 0 0 0 0 0 0 0 0 0 0 0 0 0 0 0 0 0 0 0 0 0 0 0 0 0 0 0 0 0
0 0 0 0 0 0 0 0 0 0 0 0 0 0 0 0 0 0 0 0 0 0 0 0 0 0 0 0 0 0 0 0 0 0 0 0 0 0
0 0 0 0 0 0 0 0 0 0 0 0 0 0 0 0 0 0 0 0 0 0 0 0 0 0 0 0 0 0 0 0 0 0 0 0 0 0
0 0 0 0 0 0 0 0 0 0 0 0 0 0 0 0 0 0 0 0 0 0 0 0 0 0 0 0 0 0 0 0 0 0 0 0 0 0
0 0 0 0 0 0 0 0 0 0 0 0 0 0 0 0 0 0 0 0 0 0 0 0 0 0 0 0 0 0 0 0 0 0 0 0 0 0
0 0 0 0 0 0 0 0 0 0 0 0 0 0 0 0 0 0 0 0 0 0 0 0 0 0 0 0 0 0 0 0 0 0 0 0 0 0
0 0 0 0 0 0 0 0 0 0 0 0 0 0 0 0 0 0 0 0 0 0 0 0 0 0 0 0 0 0 0 0 0 0 0 0 0 0
0 0 0 0 0 0 0 0 0 0 0 0 0 0 0 0 0 0 0 0 0 0 0 0 0 0 0 0 0 0 0 0 0 0 0 0 0 0
0 0 0 0 0 0 0 0 0 0 0 0 0 0 0 0 0 0 0 0 0 0 0 0 0 0 0 0 0 0 0 0 0 0 0 0 0 0
0 0 0 0 0 0 0 0 0 0 0 0 0 0 0 0 0 0 0 0 0 0 0 0 0 0 0 0 0 0 0 0 0 0 0 0 0 0
0 0 0 0 0 0 0 0 0 0 0 0 0 0 0 0 0 0 0 0 0 0 0 0 0 0 0 0 0 0 0 0 0 0 0 0 0 0
0 0 0 0 0 0 0 0 0 0 0 0 0 0 0 0 0 0 0 0 0 0 0 0 0 0 0 0 0 0 0 0 0 0 0 0 0 0
0 0 0 0 0 0 0 0 0 0 0 0 0 0 0 0 0 0 0 0 0 0 0 0 0 0 0 0 0 0 0 0 0 0 0 0 0 0
0 0 0 0 0 0 0 0 0 0 0 0 0 0 0 0 0 0 0 0 0 0 0 0 0 0 0 0 0 0 0 0 0 0 0 0 0 0
0 0 0 0 0 0 0 0 0 0 0 0 0 0 0 0 0 0 0 0 0 0 0 0 0 0 0 0 0 0 0 0 0 0 0 0 0 0
0 0 0 0 0 0 0 0 0 0 0 0 0 0 0 0 0 0 0 0 0 0 0 0 0 0 0 0 0 0 0 0 0 0 0 0 0 0
0 0 0 0 0 0 0 0 0 0 0 0 0 0 0 0 0 0 0 0 0 0 0 0 0 0 0 0 0 0 0 0 0 0 0 0 0 0
0 0 0 0 0 0 0 0 0 0 0 0 0 0 0 0 0 0 0 0 0 0 0 0 0 0 0 0 0 0 0 0 0 0 0 0 0 0
0 0 0 0 0 0 0 0 0 0 0 0 0 0 0 0 0 0 0 0 0 0 0 0 0 0 0 0 0 0 0 0 0 0 0 0 0 0
Wind_Speed
5 5 4 3 3 3 3 3 3 3 4 4 3 2 2 1 2 2 2 5 6 7 7 7 8 8 9 9 10 11 11 11 11 12 12 12 12 13
4 4 5 3 3 3 3 3 3 4 4 3 3 1 1 1 3 2 3 5 6 7 7 7 7 8 9 9 11 11 12 12 12 12 12 12 13 14
4 5 5 4 3 3 3 3 3 3 5 3 2 1 1 2 2 2 2 3 3 6 7 7 8 8 9 10 10 11 11 11 12 12 13 13 14 14
5 5 5 4 5 4 4 4 4 4 4 4 2 1 2 2 2 2 2 3 3 6 7 7 8 9 9 10 10 10 10 11 11 12 12 13 13 13
5 6 6 5 5 4 4 4 4 3 3 3 3 1 1 1 1 2 2 2 3 4 6 7 9 9 9 9 9 9 9 10 11 11 11 11 12 13
4 5 5 5 6 5 5 5 4 3 3 3 3 2 1 1 1 2 3 2 3 3 5 6 7 8 8 9 9 9 9 10 10 11 10 11 12 12
4 5 5 6 7 6 4 4 4 4 3 3 3 2 2 1 2 2 3 3 3 2 3 3 3 3 4 7 8 9 10 10 11 10 10 11 12 12
4 4 4 5 6 7 7 6 6 5 5 4 4 4 4 3 2 2 2 1 3 1 2 4 2 4 3 3 7 10 10 11 11 11 11 11 12 12
4 4 3 3 4 4 5 5 4 5 6 5 5 6 5 4 3 4 3 3 4 2 1 4 2 4 3 4 9 10 11 11 11 11 11 12 12 12
3 3 4 3 3 3 3 3 3 3 4 4 5 5 3 3 4 4 4 3 2 2 1 3 2 3 4 4 8 10 10 10 11 11 12 12 12 12
2 2 3 3 4 4 3 3 3 2 3 3 3 3 3 3 2 2 2 2 2 2 1 2 2 3 3 4 5 8 9 9 11 11 12 12 13 12
1 2 3 4 4 4 3 3 3 3 1 1 2 2 2 3 3 3 4 3 2 2 2 2 1 1 3 3 3 3 4 8 11 11 12 12 13 7
1 1 1 3 4 4 3 3 4 2 1 1 1 1 1 1 2 2 2 4 4 4 2 2 1 1 2 4 3 2 3 3 4 6 9 12 12 8
2 1 1 2 3 3 2 2 2 1 0 1 1 1 1 2 2 2 2 3 3 4 3 3 3 3 3 4 4 3 3 3 3 4 4 9 9 10
1 2 1 2 2 1 1 2 1 1 1 2 2 2 2 2 1 1 1 1 2 2 2 3 3 3 3 4 4 4 4 4 3 4 4 4 4 4
1 0 1 1 0 1 1 1 0 1 1 2 2 1 0 0 1 1 1 1 2 2 2 2 3 4 4 5 5 5 4 4 4 4 5 5 4 3
1 0 0 0 0 0 0 1 0 0 1 1 1 1 1 1 1 1 1 1 2 2 2 2 2 3 4 4 4 5 5 4 4 4 4 6 5 4
1 1 1 1 1 1 1 1 1 1 1 1 1 1 1 1 1 1 1 2 2 3 2 2 2 2 2 3 6 5 4 4 4 3 3 5 7 5
2 1 1 2 2 2 2 2 2 1 1 2 2 1 1 1 2 1 1 2 2 2 2 1 1 1 2 4 3 3 3 4 4 4 4 4 6 7
1 1 2 2 2 2 2 2 1 1 1 1 1 1 1 2 2 2 2 2 2 2 2 2 2 2 4 4 4 4 5 4 4 5 5 5 6 9
1 2 2 2 2 2 2 2 2 2 2 2 2 2 2 2 2 2 2 3 2 2 3 3 3 3 2 2 3 5 4 6 6 5 5 5 5 5
2 2 2 2 2 2 2 2 2 2 2 2 2 2 2 2 3 3 3 3 3 3 3 3 3 2 2 3 5 6 6 6 6 9 9 7 4 4
3 2 2 2 3 2 2 3 3 3 3 3 3 3 3 2 3 3 3 3 3 2 2 2 2 2 2 3 4 5 6 7 5 5 5 8 11 13
Wind_Direction
218 215 218 220 209 207 196 187 193 240 253 242 245 245 229 219 253 245 254 264 260 258 259 261 264 269 269 269 271 271 272 272 273 274 276 278 280 281
215 216 222 220 212 209 205 207 206 217 248 246 233 254 230 251 256 246 246 265 263 266 269 270 270 274 274 274 272 271 272 273 275 276 279 281 281 281
221 218 223 213 214 214 209 211 217 210 243 265 253 260 224 241 276 268 265 257 268 273 273 271 272 274 277 277 275 275 276 277 279 280 281 282 283 282
224 222 226 218 218 216 215 220 221 216 222 250 261 251 241 241 258 268 274 271 273 276 272 270 275 281 282 279 277 277 280 282 282 283 282 281 283 284
223 220 223 217 223 223 221 223 223 225 219 229 256 259 254 267 282 285 279 280 280 278 272 272 277 281 280 280 281 281 284 286 286 284 283 284 286 286
227 224 221 218 223 222 221 221 216 219 219 222 238 259 262 265 239 270 286 284 287 291 274 280 280 279 278 282 285 285 284 284 287 288 287 287 288 288
231 231 228 225 224 222 222 216 207 215 216 221 231 244 246 242 239 237 264 293 291 269 291 287 284 277 273 279 281 281 281 283 285 286 290 291 290 289
232 236 233 228 231 230 230 221 211 213 217 218 227 231 237 237 237 227 244 282 278 261 277 281 265 264 269 267 278 280 280 283 285 287 289 291 294 293
230 233 236 235 228 229 232 227 226 234 225 221 230 235 236 225 212 220 222 232 247 251 245 268 262 268 278 277 279 279 282 285 288 290 292 292 291 293
234 233 231 235 226 217 213 216 229 242 243 236 236 243 241 219 207 215 219 239 279 266 208 257 276 278 292 285 277 275 282 286 289 291 294 294 294 295
238 230 224 231 230 219 206 216 238 259 268 250 258 260 249 229 195 168 186 203 257 253 211 239 277 296 291 278 280 285 290 293 294 294 296 298 300 300
251 242 235 233 231 216 204 206 235 254 252 278 271 272 254 235 219 206 201 206 220 250 216 212 259 311 301 282 283 293 294 295 300 301 302 301 301 299
237 252 258 244 236 229 221 217 233 240 229 230 253 268 267 250 248 235 215 207 214 233 208 184 218 221 242 286 292 283 287 295 298 297 301 306 306 303
226 242 247 234 242 244 236 230 235 234 179 219 235 256 268 271 271 260 239 231 230 233 219 194 211 216 241 271 280 293 291 287 287 291 298 307 308 308
226 229 228 226 240 256 241 219 202 193 202 218 227 246 256 266 276 283 277 265 275 265 243 224 226 232 235 250 269 282 297 297 290 292 298 298 296 300
236 190 185 172 189 42 11 297 245 210 216 236 245 255 289 302 284 282 260 286 289 290 270 243 238 232 246 253 258 271 270 277 296 303 304 297 291 280
143 119 130 139 190 241 347 326 303 212 227 243 238 232 273 289 290 302 255 257 258 278 298 300 270 249 246 247 260 263 270 276 279 294 302 298 292 283
128 165 194 205 220 231 239 262 261 250 254 244 232 233 242 257 273 275 259 237 247 261 271 288 315 321 307 276 237 255 265 270 283 288 280 286 290 290
146 181 208 222 231 236 242 247 257 264 264 244 228 230 233 244 247 252 253 253 255 260 267 266 255 244 268 281 282 238 252 281 292 289 275 265 277 287
181 204 224 226 226 233 238 248 260 259 257 253 230 225 223 228 237 244 244 249 258 265 271 264 241 233 235 258 277 283 265 261 272 281 284 282 278 285
219 221 227 229 233 234 230 228 235 241 243 244 238 231 223 220 235 244 247 255 252 255 261 266 266 270 265 268 276 281 278 272 271 268 278 288 294 297
228 230 231 229 229 230 233 227 233 234 239 240 234 237 238 230 230 235 237 240 248 251 262 278 293 283 244 246 268 285 296 301 292 287 275 259 257 266
233 235 236 231 229 225 226 233 236 238 236 231 227 230 229 236 242 236 233 234 241 250 265 282 293 283 263 253 266 279 290 299 304 304 291 283 279 277